Location: Shenandoah County Park
(38.9356°N, 78.4524°W)
Time: 14:42:11
(UTC-05:00)

Vanguard 2 Rocket - Pass Details

Date: 06 December 2023
Orbit: 555 x 3309 km, 32.9° (Epoch: 03 March)

Event Time Altitude Azimuth Distance (km) Brightness Sun altitude
Rises 17:58:42 0° 274° (W) 7,012 12.8 -12.8°
Reaches altitude 10° 18:03:12 10° 272° (W) 6,147 12.3 -13.6°
Maximum altitude 18:23:11 66° 196° (SSW) 3,338 9.8 -17.3°
Drops below altitude 10° 18:39:05 10° 119° (ESE) 5,037 10.2 -20.3°
Enters shadow 18:39:22 - 119° (ESE) 5,096 10.3 -20.4°
Sets 18:42:22 0° 116° (ESE) 5,742 - -21.0°
